Regional Weather Roundup
Issued by NWS Glasgow, MT

Home | Current Version | Previous Version | Text Only | Print | Product List | Glossary On
Versions: 1 2 3 4 5 6 7 8 9 10 11 12 13 14 15 16 17 18 19 20 21 22 23 24 25 26 27 28 29 30 31 32 33 34 35 36 37 38 39 40 41 42 43 44 45 46 47 48 49 50
000
ASUS45 KGGW 272215
RWRGGW
HOURLY REGIONAL WEATHER ROUNDUP FOR NORTHEAST MONTANA
NATIONAL WEATHER SERVICE GLASGOW MONTANA
400 PM MDT WED MAY 27 2015

NOTE: "FAIR" INDICATES FEW OR NO CLOUDS BELOW 12,000 FEET WITH NO
SIGNIFICANT WEATHER AND/OR OBSTRUCTIONS TO VISISBILITY.

NORTHEAST MONTANA


CITY           SKY/WX    TMP DP  RH WIND       PRES   REMARKS
GLASGOW        PTSUNNY   69  51  52 S7        29.89S
WOLF POINT     PTSUNNY   72  52  49 S8        29.90F
JORDAN           N/A     62  55  77 SW6       29.92S
WINNETT          N/A     67  51  56 SW3G12      N/A
SIDNEY         CLOUDY    63  55  77 CALM      29.92F
GLENDIVE       CLOUDY    63  55  77 NE9       29.91F
MALTA            N/A     71  54  54 W5G15       N/A

FORT PECK REPORTS


CITY           SKY/WX    TMP DP  RH WIND       PRES   REMARKS
FORT PECK        N/A     70  57  63 S5          N/A
THE PINES        N/A     75  48  38 SE3         N/A

SOUTHEAST MONTANA


CITY           SKY/WX    TMP DP  RH WIND       PRES   REMARKS
BILLINGS       PTSUNNY   63  49  60 NE9       29.96F
MILES CITY     MOSUNNY   66  56  70 E6        29.91S
BAKER          CLOUDY    62  57  83 N17       29.94F
LIVINGSTON     MOSUNNY   65  41  41 W16       29.98S

CENTRAL MONTANA


CITY           SKY/WX    TMP DP  RH WIND       PRES   REMARKS
HAVRE          LGT RAIN  62  55  77 E7        29.92R
LEWISTOWN      LGT RAIN  60  51  72 N5        29.99R
GREAT FALLS    PTSUNNY   63  48  58 W5        29.98F
CUT BANK       CLOUDY    64  44  48 N8        29.97F
HELENA         CLOUDY    66  46  48 E6        29.98F
BUTTE          PTSUNNY   58  42  55 NW12      30.04F
BOZEMAN        LGT RAIN  55  47  74 SW5       30.05R

WESTERN MONTANA


CITY           SKY/WX    TMP DP  RH WIND       PRES   REMARKS
MISSOULA       PTSUNNY   64  43  46 W15       30.00S
KALISPELL      NOT AVBL

NORTH DAKOTA


CITY           SKY/WX    TMP DP  RH WIND       PRES   REMARKS
WILLISTON      RAIN      60  56  86 CALM      29.98R FOG
DICKINSON      CLOUDY    59  54  83 NW21G38   29.90R
MINOT          CLOUDY    77  49  37 E12       29.92F
BISMARCK       PTSUNNY   80  45  28 S16       29.92F

SOUTHERN SASKATCHEWAN


CITY           SKY/WX    TMP DP  RH WIND       PRES   REMARKS
REGINA         CLOUDY    72  46  40 E12       29.95F
MOOSE JAW      PTSUNNY   75  48  38 E12G18    29.93F
ESTEVAN        CLOUDY    72  48  43 E17       29.93F
SWIFT CURRENT  PTSUNNY   72  46  40 E21G28    29.92S



USA.gov is the U.S. government's official web portal to all federal, state and local government web resources and services.